Simultaneous Nadir Overpasses (SNOs) Predictions

Prediction of SNOs between LANDSAT-8 and METOP-B Satellite Orbit:

Table of predicted SNOs for the next 14.0 days since TLE Epoch: 10/13/2018
Index Date (LANDSAT-8) Time (LANDSAT-8) Lat,Lon (LANDSAT-8) SZA (LANDSAT-8 ) Date (METOP-B) Time (METOP-B) Lat,Lon (METOP-B) SZA (METOP-B ) Distance(km) Time Diff (sec)
1 10/15/2018 22:39:43 81.16,-119.36 92.35 10/15/2018 22:39:06 81.16,-119.56 92.32 3.33 37
2 10/15/2018 23:29:09 -81.19, 48.63 87.59 10/15/2018 23:29:45 -81.19, 48.63 87.57 0.53 36
3 10/18/2018 18:13:59 81.17, -52.82 93.41 10/18/2018 18:13:27 81.17, -52.89 93.39 1.27 32
4 10/18/2018 19:03:25 -81.19, 115.18 86.53 10/18/2018 19:04:06 -81.20, 115.29 86.50 1.87 41
5 10/21/2018 13:48:15 81.18, 13.70 94.44 10/21/2018 13:47:48 81.18, 13.75 94.43 1.00 27
6 10/21/2018 14:37:41 -81.20,-178.28 85.50 10/21/2018 14:38:28 -81.19,-178.45 85.50 2.95 47
7 10/24/2018 09:22:30 81.18, 80.20 95.44 10/24/2018 09:22:08 81.19, 80.39 95.45 3.25 22




NCC Satellite Simultaneous Nadir Overpasses (SNOs) Prediction Service
